TimeCDT,TemperatureF,Dew PointF,Humidity,Sea Level PressureIn,VisibilityMPH,Wind Direction,Wind SpeedMPH,Gust SpeedMPH,PrecipitationIn,Events,Conditions,WindDirDegrees,DateUTC
12:52 AM,44.6,33.8,66,30.02,10.0,WNW,3.5,-,N/A,,Clear,300,2012-09-19 05:52:00
1:52 AM,44.6,33.8,66,30.03,10.0,WNW,3.5,-,N/A,,Clear,300,2012-09-19 06:52:00
2:52 AM,41.0,34.0,76,30.04,10.0,Calm,Calm,-,N/A,,Clear,0,2012-09-19 07:52:00
3:52 AM,39.9,33.1,77,30.04,10.0,SSW,3.5,-,N/A,,Clear,210,2012-09-19 08:52:00
4:52 AM,39.9,34.0,79,30.04,10.0,SW,5.8,-,N/A,,Clear,220,2012-09-19 09:52:00
5:52 AM,42.1,33.1,70,30.06,10.0,SSW,4.6,-,N/A,,Scattered Clouds,210,2012-09-19 10:52:00
6:52 AM,42.1,35.1,76,30.05,10.0,SSW,3.5,-,N/A,,Mostly Cloudy,210,2012-09-19 11:52:00
7:52 AM,46.9,36.0,66,30.04,10.0,South,6.9,-,N/A,,Mostly Cloudy,190,2012-09-19 12:52:00
8:52 AM,51.1,37.0,59,30.03,10.0,South,11.5,-,N/A,,Mostly Cloudy,180,2012-09-19 13:52:00
9:52 AM,55.9,37.0,49,30.01,10.0,South,18.4,24.2,N/A,,Mostly Cloudy,190,2012-09-19 14:52:00
10:52 AM,57.9,37.9,47,29.99,10.0,South,18.4,26.5,N/A,,Mostly Cloudy,190,2012-09-19 15:52:00
11:52 AM,60.1,37.9,44,29.96,10.0,South,17.3,26.5,N/A,,Mostly Cloudy,190,2012-09-19 16:52:00
12:52 PM,61.0,39.0,44,29.94,10.0,SSW,17.3,-,0.00,Rain,Light Rain,210,2012-09-19 17:52:00
1:52 PM,66.9,39.9,37,29.88,10.0,SSW,23.0,31.1,0.00,,Scattered Clouds,200,2012-09-19 18:52:00
2:52 PM,70.0,39.0,32,29.82,10.0,South,21.9,38.0,N/A,,Partly Cloudy,190,2012-09-19 19:52:00
3:52 PM,72.0,39.9,31,29.78,10.0,SSW,25.3,34.5,N/A,,Scattered Clouds,200,2012-09-19 20:52:00
4:52 PM,71.1,41.0,34,29.76,10.0,South,23.0,38.0,N/A,,Scattered Clouds,190,2012-09-19 21:52:00
5:52 PM,71.1,41.0,34,29.75,10.0,SSW,21.9,35.7,N/A,,Scattered Clouds,200,2012-09-19 22:52:00
6:52 PM,69.1,42.1,38,29.76,10.0,SSW,15.0,-,N/A,,Scattered Clouds,210,2012-09-19 23:52:00
7:52 PM,69.1,42.1,38,29.76,10.0,SSW,18.4,32.2,N/A,,Scattered Clouds,210,2012-09-20 00:52:00
8:52 PM,64.9,46.9,52,29.75,10.0,South,20.7,29.9,0.00,Rain,Light Rain,190,2012-09-20 01:52:00
9:52 PM,62.1,48.9,62,29.78,8.0,SW,21.9,33.4,0.04,Rain,Rain,220,2012-09-20 02:52:00
10:52 PM,62.1,48.9,62,29.79,10.0,SW,12.7,21.9,0.01,,Scattered Clouds,230,2012-09-20 03:52:00
11:52 PM,62.1,48.9,62,29.80,10.0,West,11.5,24.2,N/A,,Scattered Clouds,270,2012-09-20 04:52:00